カタログに戻る

FLOCK 4H 20

運用中科学SSO
NORAD 66723·PAYLOAD·🇺🇸 United States

打ち上げ Nov 28, 2025 から Vandenberg Space Force Base

Loading…

次のパス (今後24時間)

TLE

最新Source: CelesTrak SupGP

元期: Sep 14, 2026, 12:45 UTC

1 66723C 25276BK  26257.53138889  .00006564  00000+0  28723-3 0  2575
2 66723  97.4142 330.1880 0002600  25.7884 184.5394 15.22119446    18

AllMySatでFLOCK 4H 20をリアルタイム追跡

Download on the App Store